Saba, Netherlands

2:32 PM AST on December 07, 2016 (GMT -0400)
F.D. Roosevelt

Weather History for TNCE - November, 2011

Change the Weather History Date:

Monday, November 7, 2011

  Actual Average Record
Temperature  
Mean Temperature 82 °F -  
Max Temperature 86 °F 83 °F 87 °F (1997)
Min Temperature 77 °F 77 °F 73 °F (2010)
Cooling Degree Days 16    
Growing Degree Days 32 (Base 50)    
Moisture  
Dew Point 78 °F    
Average Humidity 87    
Maximum Humidity 100    
Minimum Humidity 69    
Precipitation  
Precipitation 0.00 in - - ()
Sea Level Pressure  
Sea Level Pressure 29.88 in    
Wind  
Wind Speed 4 mph ()    
Max Wind Speed 10 mph    
Max Gust Speed -    
Visibility 7.6 miles    
Events Thunderstorm    
Averages and records for this station are not official NWS values.
T = Trace of Precipitation, MM = Missing Value Source: Averaged Metar Reports

Daily Weather History Graph

Daily Weather History Graph

Search for Another Location

Airport or City:

Trip Planner

Search our weather history database for the weather conditions in past years. The results will help you decide how hot, cold, wet, or windy it might be!

Date:

Astronomy

Nov. 07, 2011 Rise Set
Actual Time 6:12 AM AST 5:37 PM AST
Civil Twilight 5:50 AM AST 6:00 PM AST
Nautical Twilight 5:24 AM AST 6:26 PM AST
Astronomical Twilight 4:58 AM AST 6:52 PM AST
Moon 3:31 PM AST 3:30 AM AST
Length of Visible Light 12h 10m
Length of Day
11h 25m
Waxing Gibbous, 91% of the Moon is Illuminated
Nov 7
Waxing Gibbous
Nov 10
Full
Nov 18
Last Quarter
Nov 25
New
Dec 2
First Quarter

Hourly Weather History & Observations

Time (AST) Temp. Heat Index Dew Point Humidity Pressure Visibility Wind Dir Wind Speed Gust Speed Precip Events Conditions
12:00 AM 78.8 °F - 78.8 °F 100% 29.92 in - Variable 2.3 mph - N/A   Unknown
1:00 AM 78.8 °F - 78.8 °F 100% 29.89 in - Variable 1.2 mph - N/A   Unknown
2:00 AM 78.8 °F - 78.8 °F 100% 29.86 in - Variable 2.3 mph - N/A   Unknown
3:00 AM 78.8 °F - 78.8 °F 100% 29.86 in - North 2.3 mph - N/A   Unknown
4:00 AM 78.8 °F - 78.8 °F 100% 29.86 in - ENE 2.3 mph - N/A   Unknown
5:00 AM 78 °F - 78 °F 100%  in - ENE 2.3 mph - -   Clear
5:00 AM 78.8 °F - 78.8 °F 100% 29.86 in - NE 2.3 mph - N/A   Unknown
6:00 AM 78.8 °F - 78.8 °F 100% 29.89 in - ENE 3.5 mph - N/A   Unknown
8:00 AM 82 °F - 78 °F 84% 29.92 in 16 mi ESE 5.8 mph - -   Partly Cloudy
8:00 AM 82.4 °F 92.4 °F 78.8 °F 89% 29.92 in 6.2 mi East 5.8 mph - N/A   Partly Cloudy
9:00 AM 84.2 °F 92.3 °F 75.2 °F 74% 29.92 in 6.2 mi Variable 5.8 mph - N/A   Partly Cloudy
10:00 AM 86.0 °F 96.9 °F 77.0 °F 74% 29.92 in 6.2 mi South 5.8 mph - N/A   Partly Cloudy
11:00 AM 85 °F - 78 °F 73% 29.92 in 16 mi ESE 6.9 mph - -   Partly Cloudy
11:00 AM 84.2 °F 94.1 °F 77.0 °F 79% 29.92 in 6.2 mi East 5.8 mph - N/A   Scattered Clouds
12:00 PM 86.0 °F 96.9 °F 77.0 °F 74% 29.89 in 6.2 mi South 9.2 mph - N/A   Partly Cloudy
1:00 PM 86.0 °F 99.3 °F 78.8 °F 79% 29.86 in 6.2 mi South 10.4 mph - N/A   Partly Cloudy
2:00 PM 86 °F - 77 °F 69% 29.84 in 25 mi SSW 9.2 mph - -   Partly Cloudy
2:00 PM 86.0 °F 96.9 °F 77.0 °F 74% 29.83 in 6.2 mi South 8.1 mph - N/A   Scattered Clouds
3:00 PM 86.0 °F 96.9 °F 77.0 °F 74% 29.83 in 6.2 mi SSW 9.2 mph - N/A   Partly Cloudy
4:00 PM 84.2 °F 94.1 °F 77.0 °F 79% 29.83 in 6.2 mi SW 4.6 mph - N/A   Partly Cloudy
5:00 PM 82 °F - 76 °F 78% 29.85 in 9 mi ENE 4.6 mph - -   Mostly Cloudy
5:00 PM 82.4 °F 90.9 °F 77.0 °F 84% 29.86 in 6.2 mi ENE 5.8 mph - N/A   Mostly Cloudy
6:00 PM 78.8 °F - 77.0 °F 94% 29.86 in 6.2 mi ENE 6.9 mph - N/A Thunderstorm Thunderstorm
7:00 PM 78.8 °F - 77.0 °F 94% 29.86 in 6.2 mi NNE 3.5 mph - N/A Thunderstorm Thunderstorm
8:00 PM 77.0 °F - 77.0 °F 100% 29.89 in 6.2 mi Variable 1.2 mph - N/A Thunderstorm Thunderstorm